Location: Broek
(53.2737°N, 5.9967°E)
Time: 21:09:49
(UTC+00:00)

Cosmos 2360 Rocket - Pass Details

Date: 10 October 2024
Orbit: 834 x 843 km, 71.0° (Epoch: 09 November)

Event Time Altitude Azimuth Distance (km) Brightness Sun altitude
Rises 17:21:54 0° 317° (NW) 3,393 6.0 -5.5°
Reaches altitude 10° 17:25:39 10° 342° (NNW) 2,458 4.8 -6.0°
Maximum altitude 17:28:36 14° 14° (NNE) 2,167 4.2 -6.5°
Drops below altitude 10° 17:31:34 10° 46° (NE) 2,457 4.2 -6.9°
Enters shadow 17:33:27 - 61° (ENE) 2,878 4.4 -7.2°
